Back to catalog

COSMOS 1232

AliveMilitaryLEO
NORAD 12111·PAYLOAD·🇷🇺 Russia

Launched Dec 23, 1980 from Plesetsk Cosmodrome

Loading…

Next Passes (next 24 hours)

TLE

FreshSource: Space-Track

Epoch: Sep 14, 2026, 11:33 UTC

1 12111U 80102E   26257.48172755 -.00000021  00000-0 -25052-4 0  9991
2 12111  73.9905 262.9863 0033626 316.9329 115.9715 12.56333239 97013

Track COSMOS 1232 in real time with AllMySat

Download on the App Store